Flag for Norway Weather past 2 weeks in Kragerø, Norway

Now
40 °F

Chilly.


Feels Like: 40 °F
Forecast: 44 / 62 °F
Wind: 1 mph from West

Location: Jomfruland Fyr

Current Time: May 24, 2015 at 6:24:22 AM

Latest Report: May 24, 2015 at 5:00 AM


Visibility: N/A

Pressure: 29.95 "Hg

Humidity: 77%

Dew point: 33 °F

Location of KragerøLocation

Historic Weather in Kragerø — Graph

°F

Kragerø temperature yesterday

Maximum temperature yesterday: 63 °F (at 2:00 PM)
Minimum temperature yesterday: 46 °F (at 5:00 AM)
Average temperature yesterday: 54 °F

Past Weeks' High & Low Weather Summary

 TemperatureHumidityPressure
High63 °F (May 23, 2:00 PM)94% (May 16, 3:00 PM)30.16 "Hg (May 16, 3:00 PM)
Low37 °F (May 9, 5:00 AM)25% (May 10, 4:00 PM)29.35 "Hg (May 19, 6:00 AM)
Average49 °F71%29.84 "Hg
* Reported May 9 4:00 AM — May 24 4:00 AM, Kragerø, Weather by CustomWeather, © 2015

Note: Actual official high and low records may vary slightly from our data, if they occured in-between our weather recording intervals... More about our weather records

Advertising

Kragerø weather history for previous 24 hours

 ConditionsComfort  
Time TempWeatherWind HumidityBarometerVisibility
4:00 AM
Sun, May 24
44 °FQuite cool.2 mph70%29.96 "HgN/A
3:00 AM44 °FQuite cool.2 mph69%29.97 "HgN/A
2:00 AM46 °FCool.2 mph64%29.97 "HgN/A
1:00 AM48 °FCool.2 mph56%29.98 "HgN/A
12:00 AM49 °FCool.2 mph51%29.98 "HgN/A
10:00 PM
Sat, May 23
53 °FCool.5 mph44%29.97 "HgN/A
9:00 PM55 °FRefreshingly cool.6 mph36%29.96 "HgN/A
8:00 PM58 °FRefreshingly cool.6 mph31%29.95 "HgN/A
7:00 PM61 °FRefreshingly cool.5 mph30%29.94 "HgN/A
6:00 PM62 °FMild.6 mph27%29.95 "HgN/A
5:00 PM58 °FRefreshingly cool.5 mph57%29.95 "HgN/A
4:00 PM58 °FRefreshingly cool.7 mph58%29.96 "HgN/A
3:00 PM61 °FRefreshingly cool.6 mph42%29.96 "HgN/A
2:00 PM63 °FMild.5 mph29%29.96 "HgN/A
1:00 PM62 °FRefreshingly cool.5 mph30%29.96 "HgN/A
12:00 PM60 °FRefreshingly cool.8 mph32%29.96 "HgN/A
11:00 AM59 °FRefreshingly cool.8 mph36%29.95 "HgN/A
10:00 AM58 °FRefreshingly cool.7 mph35%29.94 "HgN/A
9:00 AM56 °FRefreshingly cool.6 mph45%29.93 "HgN/A
8:00 AM49 °FCool.9 mph75%29.91 "HgN/A
7:00 AM47 °FCool.12 mph75%29.88 "HgN/A
6:00 AM46 °FCool.10 mph75%29.87 "HgN/A
Weather by CustomWeather, © 2015

See weather overviewHow to use our weather pages